DW3016 Weather Reports


time (UTC)temp
F
wind
direction
speed
knots
gust
knots
rain 1hr
in
rain 24hr
in
rain mn
in
humidity
%
barometer
mb
20260504202717 83 352 4.3 6.1 0.00 0.00 0.00 31 1000.0
20260504202215 82 243 3.5 6.1 0.00 0.00 0.00 31 999.9
20260504201711 83 243 3.5 6.1 0.00 0.00 0.00 30 999.7
20260504201209 83 191 0.9 5.2 0.00 0.00 0.00 30 999.8
20260504200706 83 328 1.7 5.2 0.00 0.00 0.00 30 1000.0
20260504200202 83 166 2.6 5.2 0.00 0.00 0.00 28 999.9
20260504195659 82 226 2.6 7.0 0.00 0.00 0.00 29 999.9
20260504195155 83 213 1.7 2.6 0.00 0.00 0.00 28 1000.1
20260504194652 83 185 2.6 3.5 0.00 0.00 0.00 29 1000.0
20260504194148 83 263 1.7 5.2 0.00 0.00 0.00 28 1000.1
20260504193644 83 228 1.7 2.6 0.00 0.00 0.00 28 1000.1
20260504193142 82 67 0.9 3.5 0.00 0.00 0.00 28 1000.0
20260504192640 83 188 2.6 5.2 0.00 0.00 0.00 28 1000.0
20260504192138 84 277 1.7 3.5 0.00 0.00 0.00 30 1000.1
20260504191636 83 249 1.7 2.6 0.00 0.00 0.00 29 1000.0
20260504191132 83 146 1.7 3.5 0.00 0.00 0.00 29 1000.4
20260504190628 83 208 3.5 5.2 0.00 0.00 0.00 31 1000.1
20260504190125 83 238 2.6 9.6 0.00 0.00 0.00 30 1000.2
20260504185621 83 236 0.9 6.1 0.00 0.00 0.00 31 1000.1
20260504185118 84 286 4.3 7.8 0.00 0.00 0.00 31 1000.4
20260504184614 84 183 2.6 6.1 0.00 0.00 0.00 31 1000.2
20260504184109 83 318 0.9 3.5 0.00 0.00 0.00 34 1000.4
20260504183607 83 243 3.5 5.2 0.00 0.00 0.00 30 1000.3
20260504183104 83 81 3.5 7.8 0.00 0.00 0.00 31 1000.3
20260504182601 83 316 0.9 5.2 0.00 0.00 0.00 31 1000.2
20260504182059 83 232 0.9 6.1 0.00 0.00 0.00 32 1000.4
20260504181556 82 181 1.7 3.5 0.00 0.00 0.00 34 1000.4
20260504181054 82 207 3.5 12.2 0.00 0.00 0.00 33 1000.5
20260504180552 82 179 1.7 9.6 0.00 0.00 0.00 32 1000.4
20260504180051 83 212 3.5 6.1 0.00 0.00 0.00 32 1000.4
20260504175548 82 273 1.7 7.0 0.00 0.00 0.00 32 1000.4
20260504175044 82 184 1.7 3.5 0.00 0.00 0.00 32 1000.4
20260504174543 82 218 2.6 6.1 0.00 0.00 0.00 32 1000.3
20260504174039 81 217 2.6 7.8 0.00 0.00 0.00 34 1000.2
20260504173536 82 292 2.6 13.0 0.00 0.00 0.00 32 1000.2
20260504173033 81 223 1.7 5.2 0.00 0.00 0.00 34 1000.2
20260504172529 80 96 3.5 5.2 0.00 0.00 0.00 34 1000.2
20260504172026 80 280 5.2 7.0 0.00 0.00 0.00 33 1000.2
20260504171523 81 43 0.9 5.2 0.00 0.00 0.00 33 1000.2
20260504171020 81 240 0.9 3.5 0.00 0.00 0.00 33 1000.4
20260504170516 82 315 1.7 2.6 0.00 0.00 0.00 33 1000.4
20260504160436 77 171 0.0 1.7 0.00 0.00 0.00 46 1000.7
20260504150900 63 155 0.0 1.7 0.00 0.00 0.00 49 1001.2
20260504150356 63 211 0.9 3.5 0.00 0.00 0.00 49 1001.2
20260504141326 67 189 0.9 2.6 0.00 0.00 0.00 52 1001.9
20260504140823 67 202 0.0 2.6 0.00 0.00 0.00 50 1001.8
20260504140319 67 183 1.7 3.5 0.00 0.00 0.00 50 1001.8
20260504130748 59 233 0.0 1.7 0.00 0.00 0.00 57 1002.1
20260504130243 59 204 0.0 1.7 0.00 0.00 0.00 58 1002.0
20260504120207 53 202 0.0 0.0 0.00 0.00 0.00 66 1002.0
20260504110634 51 207 0.0 0.9 0.00 0.00 0.00 67 1002.3
20260504110130 51 202 0.0 0.0 0.00 0.00 0.00 68 1002.2
20260504100557 51 207 0.0 0.9 0.00 0.00 0.00 64 1003.1
20260504081950 51 199 0.0 0.9 0.00 0.00 0.00 65 1004.1
20260504081448 50 196 0.0 0.0 0.00 0.00 0.00 65 1003.9
20260504080943 51 195 0.0 0.0 0.00 0.00 0.00 63 1004.2
20260504080440 51 195 0.0 0.0 0.00 0.00 0.00 63 1004.2
20260504070408 53 206 0.0 0.0 0.00 0.00 0.00 58 1005.2
20260504050253 55 195 0.0 0.0 0.00 0.00 0.00 53 1006.5
20260504045751 54 195 0.0 0.0 0.00 0.00 0.00 53 1006.4
20260504045250 55 194 0.0 0.0 0.00 0.00 0.00 52 1006.5
20260504044748 56 194 0.0 0.0 0.00 0.00 0.00 52 1006.7
20260504044245 55 194 0.0 0.0 0.00 0.00 0.00 52 1006.6
20260504043742 55 194 0.0 0.0 0.00 0.00 0.00 52 1006.5
20260504043239 56 194 0.0 0.0 0.00 0.00 0.00 51 1006.7
20260504042737 56 195 0.0 0.0 0.00 0.00 0.00 51 1006.8
20260504042233 57 195 0.0 0.0 0.00 0.00 0.00 50 1006.9
20260504041729 57 195 0.0 0.0 0.00 0.00 0.00 49 1006.8
20260504041225 57 194 0.0 0.0 0.00 0.00 0.00 49 1006.9
20260504040722 56 195 0.0 0.0 0.00 0.00 0.00 49 1006.8
20260504040219 57 196 0.0 0.0 0.00 0.00 0.00 48 1006.9
20260504035715 57 196 0.0 0.0 0.00 0.00 0.00 47 1007.2
20260504035213 57 196 0.0 0.0 0.00 0.00 0.00 48 1007.1
20260504034710 57 195 0.0 0.0 0.00 0.00 0.00 48 1007.1
20260504034207 57 198 0.0 0.0 0.00 0.00 0.00 46 1007.3
20260504033705 58 198 0.0 0.0 0.00 0.00 0.00 46 1007.5
20260504033202 58 198 0.0 0.0 0.00 0.00 0.00 46 1007.6
20260504032659 58 198 0.0 0.0 0.00 0.00 0.00 45 1007.3
20260504032156 59 199 0.0 0.0 0.00 0.00 0.00 44 1007.7
20260504031653 59 222 0.0 0.0 0.00 0.00 0.00 45 1007.5
20260504031149 59 221 0.0 0.0 0.00 0.00 0.00 44 1007.5
20260504030646 58 221 0.0 0.0 0.00 0.00 0.00 44 1007.7
20260504030143 59 221 0.0 0.0 0.00 0.00 0.00 44 1007.6
20260504025639 59 221 0.0 0.0 0.00 0.00 0.00 44 1007.5
20260504025136 59 222 0.0 0.0 0.00 0.00 0.00 43 1007.6
20260504024634 60 222 0.0 0.0 0.00 0.00 0.00 43 1007.6
20260504024130 59 222 0.0 0.0 0.00 0.00 0.00 43 1007.6
20260504023627 59 212 0.0 0.0 0.00 0.00 0.00 43 1007.6
20260504023123 59 212 0.0 0.0 0.00 0.00 0.00 43 1007.6
20260504022619 60 212 0.0 0.0 0.00 0.00 0.00 42 1007.5
20260504022115 60 212 0.0 0.0 0.00 0.00 0.00 42 1007.6
20260504021614 61 212 0.0 0.0 0.00 0.00 0.00 41 1007.3
20260504021110 62 212 0.0 0.0 0.00 0.00 0.00 41 1007.6
20260504020607 61 212 0.0 0.0 0.00 0.00 0.00 41 1007.4
20260504015559 61 212 0.0 0.0 0.00 0.00 0.00 41 1007.4
20260504015055 61 204 0.0 0.0 0.00 0.00 0.00 42 1007.3
20260504014552 61 204 0.0 0.0 0.00 0.00 0.00 42 1007.3
20260504014049 62 202 0.0 0.0 0.00 0.00 0.00 42 1007.5
20260504013546 63 219 0.0 0.0 0.00 0.00 0.00 41 1007.3
20260504013043 64 219 0.0 0.0 0.00 0.00 0.00 40 1007.4
20260504012541 65 219 0.0 0.0 0.00 0.00 0.00 38 1007.3
20260504012039 65 219 0.0 0.0 0.00 0.00 0.00 37 1007.3
20260504011535 66 219 0.0 0.0 0.00 0.00 0.00 36 1007.4
20260504011031 67 219 0.0 0.0 0.00 0.00 0.00 35 1007.3
20260504010527 67 219 0.0 0.0 0.00 0.00 0.00 35 1007.2
20260504010023 68 204 0.0 0.0 0.00 0.00 0.00 35 1007.5
20260504005520 68 212 0.0 0.0 0.00 0.00 0.00 34 1007.3
20260504005018 69 212 0.0 0.0 0.00 0.00 0.00 33 1007.3
20260504004515 70 201 0.0 0.0 0.00 0.00 0.00 31 1007.4
20260504004012 70 202 0.0 0.9 0.00 0.00 0.00 31 1007.4
20260504003508 70 175 0.0 0.9 0.00 0.00 0.00 30 1007.3
20260504003005 70 235 0.0 0.9 0.00 0.00 0.00 30 1007.3
20260504002502 71 271 1.7 1.7 0.00 0.00 0.00 29 1007.4
20260504001959 71 197 0.0 0.9 0.00 0.00 0.00 30 1007.4
20260504001457 71 208 0.0 0.9 0.00 0.00 0.00 30 1007.2
20260504000953 72 206 0.0 0.9 0.00 0.00 0.00 29 1007.2
20260504000450 72 195 0.0 0.9 0.00 0.00 0.00 29 1007.5
20260503235948 73 223 0.0 1.7 0.00 0.00 0.00 29 1007.3
20260503235445 73 271 1.7 2.6 0.00 0.00 0.00 28 1007.2
20260503234942 74 195 0.0 2.6 0.00 0.00 0.00 28 1007.4
20260503234440 75 34 0.9 7.0 0.00 0.00 0.00 27 1007.3
20260503233938 75 333 1.7 1.7 0.00 0.00 0.00 26 1007.4
20260503233434 76 230 0.9 2.6 0.00 0.00 0.00 25 1007.3
20260503232931 76 206 0.9 2.6 0.00 0.00 0.00 25 1007.4
20260503232428 76 231 1.7 3.5 0.00 0.00 0.00 25 1007.4
20260503231926 76 123 0.9 1.7 0.00 0.00 0.00 26 1007.4
20260503231423 76 327 0.0 2.6 0.00 0.00 0.00 25 1007.3
20260503230919 76 200 0.9 2.6 0.00 0.00 0.00 25 1007.3
20260503230415 77 186 0.0 2.6 0.00 0.00 0.00 26 1007.4
20260503225913 77 251 0.0 0.9 0.00 0.00 0.00 26 1007.4
20260503225409 77 284 1.7 2.6 0.00 0.00 0.00 26 1007.4
20260503224905 77 213 0.9 1.7 0.00 0.00 0.00 26 1007.5
20260503224402 76 273 3.5 5.2 0.00 0.00 0.00 26 1007.4
20260503223900 76 216 1.7 2.6 0.00 0.00 0.00 26 1007.5
20260503223358 76 178 0.9 6.1 0.00 0.00 0.00 27 1007.5
20260503222853 76 194 0.9 2.6 0.00 0.00 0.00 27 1007.6
20260503222352 75 224 1.7 5.2 0.00 0.00 0.00 27 1007.7
20260503221850 75 271 1.7 5.2 0.00 0.00 0.00 28 1007.6
20260503221348 75 310 0.9 2.6 0.00 0.00 0.00 28 1007.6
20260503220844 75 27 3.5 6.1 0.00 0.00 0.00 26 1007.7
20260503220341 75 226 0.9 3.5 0.00 0.00 0.00 27 1007.6
20260503215838 75 208 0.9 2.6 0.00 0.00 0.00 27 1007.7
20260503215335 75 231 2.6 6.1 0.00 0.00 0.00 27 1007.6
20260503214832 75 314 3.5 6.1 0.00 0.00 0.00 28 1007.8
20260503214330 75 285 5.2 8.7 0.00 0.00 0.00 27 1007.7
20260503213827 74 258 3.5 5.2 0.00 0.00 0.00 28 1007.9
20260503213325 74 215 1.7 5.2 0.00 0.00 0.00 26 1007.7
20260503212821 74 147 2.6 7.0 0.00 0.00 0.00 27 1007.7
20260503212319 74 241 1.7 5.2 0.00 0.00 0.00 29 1007.9
20260503211816 74 313 1.7 3.5 0.00 0.00 0.00 29 1007.8
20260503211313 75 354 2.6 3.5 0.00 0.00 0.00 28 1007.9
20260503210813 74 352 1.7 9.6 0.00 0.00 0.00 28 1008.0
20260503210311 75 245 2.6 6.1 0.00 0.00 0.00 27 1007.7
20260503205805 76 45 1.7 5.2 0.00 0.00 0.00 29 1007.9
20260503205304 75 300 2.6 3.5 0.00 0.00 0.00 28 1007.9
20260503204759 76 24 1.7 5.2 0.00 0.00 0.00 28 1007.8
20260503204257 76 284 3.5 6.1 0.00 0.00 0.00 27 1007.9
20260503203754 75 310 2.6 5.2 0.00 0.00 0.00 28 1007.9
20260503203251 74 228 1.7 3.5 0.00 0.00 0.00 28 1008.0